QPF
0.00 0.00 0.00 0.00 0.00 0.00 0.00 0.00 0.00 0.01 0.06 0.10 0.08 0.50 0.30 0.09 0.14 0.10 0.05 0.04 0.07 0.04 0.01 0.02 0.02 0.01 0.00 0.00 0.01 0.00 0.00 0.01 0.00 0.00 0.00 0.00 0.00 0.00 0.00 0.01 0.06 0.01 0.10
0.00 0.00 0.00 0.00 0.00 0.00 0.00 0.00 0.00 0.01 0.05 0.07 0.06 0.04 0.06 0.05 0.07 0.05 0.03 0.00 0.04 0.03 0.01 0.00 0.03 0.02 0.04 0.00 0.00 0.00 0.00 0.00 0.01 0.00 0.00 0.00 0.00 0.00 0.00 0.01 0.00 0.00 0.18
0.00 0.00 0.00 0.00 0.00 0.00 0.01 0.00 0.00 0.00 0.02 0.06 0.09 0.05 0.04 0.05 0.03 0.04 0.04 0.06 0.02 0.02 0.03 0.02 0.00 0.01 0.03 0.01 0.02 0.00 0.01 0.04 0.04 0.04 0.00 0.00 0.00 0.00 0.00 0.00 0.01 0.01 0.06
0.00 0.00 0.00 0.00 0.00 0.00 0.00 0.01 0.02 0.05 0.01 0.09 0.09 0.04 0.04 0.06 0.05 0.04 0.04 0.01 0.01 0.01 0.05 0.04 0.03 0.02 0.04 0.02 0.02 0.05 0.05 0.05 0.02 0.04 0.00 0.00 0.00 0.00 0.00 0.00 0.03 0.08 0.13
0.00 0.00 0.00 0.03 0.00 0.01 0.02 0.03 0.05 0.09 0.02 0.04 0.07 0.11 0.05 0.04 0.02 0.03 0.05 0.09 0.07 0.04 0.07 0.08 0.04 0.02 0.02 0.03 0.06 0.04 0.05 0.04 0.00 0.02 0.00 0.00 0.00 0.00 0.02 0.02 0.11 0.10 0.08
0.00 0.00 0.02 0.05 0.04 0.04 0.05 0.04 0.03 0.04 0.03 0.03 0.02 0.03 0.04 0.01 0.02 0.08 0.07 0.06 0.11 0.08 0.06 0.12 0.04 0.10 0.12 0.08 0.06 0.02 0.02 0.06 0.03 0.05 0.03 0.04 0.02 0.01 0.03 0.05 0.09 0.10 0.05
0.00 0.00 0.01 0.02 0.03 0.04 0.06 0.05 0.05 0.05 0.05 0.04 0.03 0.02 0.02 0.05 0.16 0.20 0.29 0.12 0.13 0.15 0.12 0.06 0.06 0.01 0.02 0.06 0.16 0.09 0.05 0.04 0.02 0.04 0.02 0.03 0.02 0.04 0.05 0.09 0.11 0.11 0.09
0.00 0.00 0.00 0.01 0.01 0.02 0.02 0.04 0.05 0.05 0.07 0.08 0.09 0.09 0.07 0.07 0.13 0.23 0.17 0.05 0.07 0.11 0.11 0.11 0.10 0.07 0.10 0.17 0.22 0.20 0.19 0.13 0.05 0.03 0.01 0.00 0.00 0.04 0.07 0.10 0.12 0.09 0.10
0.00 0.00 0.00 0.00 0.00 0.00 0.00 0.00 0.01 0.03 0.05 0.08 0.09 0.12 0.11 0.17 0.43 0.16 0.19 0.01 0.00 0.01 0.02 0.07 0.11 0.14 0.16 0.25 0.17 0.15 0.15 0.11 0.22 0.25 0.20 0.15 0.10 0.06 0.13 0.16 0.10 0.08 0.06
0.00 0.00 0.00 0.00 0.00 0.00 0.00 0.00 0.00 0.01 0.04 0.03 0.04 0.04 0.03 0.05 0.06 0.04 0.06 0.02 0.01 0.03 0.04 0.07 0.09 0.10 0.13 0.16 0.15 0.12 0.06 0.11 0.19 0.20 0.18 0.13 0.15 0.10 0.16 0.16 0.14 0.10 0.10
0.00 0.00 0.00 0.00 0.00 0.00 0.00 0.00 0.00 0.00 0.00 0.00 0.00 0.00 0.00 0.00 0.01 0.01 0.00 0.00 0.00 0.01 0.03 0.06 0.04 0.06 0.07 0.09 0.11 0.10 0.09 0.06 0.10 0.09 0.11 0.14 0.18 0.16 0.14 0.11 0.12 0.15 0.12
0.00 0.00 0.00 0.00 0.00 0.00 0.00 0.00 0.00 0.01 0.02 0.01 0.00 0.00 0.00 0.00 0.00 0.00 0.00 0.00 0.00 0.00 0.00 0.00 0.00 0.01 0.01 0.01 0.01 0.01 0.01 0.01 0.00 0.00 0.03 0.07 0.10 0.15 0.10 0.12 0.15 0.13 0.12
0.00 0.00 0.00 0.00 0.00 0.00 0.00 0.00 0.00 0.01 0.00 0.00 0.01 0.01 0.00 0.00 0.00 0.00 0.00 0.00 0.00 0.00 0.00 0.00 0.00 0.00 0.00 0.00 0.00 0.00 0.00 0.00 0.00 0.01 0.02 0.06 0.08 0.10 0.11 0.12 0.11 0.09 0.07
0.00 0.00 0.00 0.00 0.00 0.00 0.00 0.00 0.00 0.00 0.00 0.00 0.00 0.00 0.00 0.00 0.00 0.00 0.00 0.00 0.00 0.00 0.00 0.00 0.00 0.00 0.00 0.00 0.00 0.00 0.00 0.00 0.00 0.06 0.15 0.21 0.33 0.46 0.51 0.50 0.52 0.45 0.35
0.00 0.00 0.00 0.00 0.00 0.00 0.00 0.00 0.00 0.00 0.00 0.00 0.00 0.00 0.00 0.01 0.00 0.00 0.00 0.00 0.00 0.00 0.00 0.00 0.00 0.00 0.00 0.00 0.00 0.00 0.00 0.00 0.00 0.00 0.01 0.03 0.12 0.34 0.56 0.82 1.09 0.96 0.53
0.00 0.00 0.00 0.00 0.00 0.00 0.00 0.00 0.00 0.00 0.00 0.00 0.00 0.00 0.00 0.00 0.00 0.00 0.00 0.00 0.00 0.00 0.00 0.00 0.00 0.00 0.00 0.00 0.00 0.00 0.00 0.00 0.00 0.00 0.00 0.00 0.02 0.09 0.14 0.23 0.27 0.19 0.15
0.00 0.00 0.00 0.00 0.00 0.00 0.00 0.00 0.00 0.00 0.00 0.00 0.00 0.00 0.00 0.00 0.00 0.00 0.00 0.00 0.00 0.00 0.00 0.00 0.00 0.00 0.00 0.00 0.00 0.00 0.00 0.00 0.00 0.00 0.00 0.00 0.01 0.04 0.05 0.05 0.05 0.03 0.02
0.01 0.00 0.00 0.00 0.00 0.00 0.00 0.00 0.00 0.00 0.00 0.00 0.00 0.00 0.00 0.00 0.00 0.00 0.00 0.00 0.00 0.00 0.00 0.00 0.00 0.00 0.00 0.00 0.00 0.00 0.00 0.00 0.00 0.00 0.00 0.00 0.00 0.01 0.01 0.02 0.02 0.01 0.00
0.14 0.00 0.00 0.00 0.00 0.00 0.00 0.00 0.00 0.00 0.00 0.00 0.00 0.00 0.00 0.00 0.00 0.00 0.00 0.00 0.00 0.00 0.00 0.00 0.00 0.00 0.00 0.00 0.00 0.00 0.00 0.00 0.00 0.00 0.00 0.00 0.00 0.00 0.00 0.00 0.00 0.00 0.00
0.20 0.04 0.00 0.00 0.00 0.00 0.00 0.00 0.00 0.00 0.00 0.00 0.00 0.00 0.00 0.00 0.00 0.00 0.00 0.00 0.00 0.00 0.00 0.00 0.00 0.00 0.00 0.00 0.00 0.00 0.00 0.00 0.00 0.00 0.00 0.00 0.00 0.00 0.00 0.00 0.00 0.00 0.00
0.07 0.01 0.00 0.00 0.00 0.00 0.00 0.00 0.00 0.00 0.00 0.00 0.00 0.00 0.00 0.00 0.00 0.00 0.00 0.00 0.00 0.00 0.00 0.00 0.00 0.00 0.00 0.00 0.00 0.00 0.00 0.00 0.00 0.00 0.00 0.00 0.00 0.00 0.00 0.00 0.00 0.00 0.00
0.01 0.00 0.00 0.00 0.00 0.00 0.00 0.00 0.00 0.00 0.00 0.00 0.00 0.00 0.00 0.00 0.00 0.00 0.00 0.00 0.00 0.00 0.00 0.00 0.00 0.00 0.00 0.00 0.00 0.00 0.00 0.00 0.00 0.00 0.00 0.00 0.00 0.00 0.00 0.00 0.00 0.00 0.00
0.00 0.00 0.00 0.00 0.00 0.00 0.00 0.00 0.00 0.00 0.00 0.00 0.00 0.00 0.00 0.00 0.00 0.00 0.00 0.00 0.00 0.00 0.00 0.00 0.00 0.00 0.00 0.00 0.00 0.00 0.00 0.00 0.00 0.00 0.00 0.00 0.00 0.00 0.00 0.00 0.00 0.00 0.00
0.00 0.00 0.00 0.00 0.00 0.00 0.00 0.00 0.00 0.00 0.00 0.00 0.00 0.00 0.00 0.00 0.00 0.00 0.00 0.00 0.00 0.00 0.00 0.00 0.00 0.00 0.00 0.00 0.00 0.00 0.00 0.00 0.00 0.00 0.00 0.00 0.00 0.00 0.00 0.00 0.00 0.00 0.00
0.00 0.00 0.00 0.00 0.00 0.00 0.00 0.00 0.00 0.00 0.00 0.00 0.00 0.00 0.00 0.00 0.00 0.00 0.00 0.00 0.00 0.00 0.00 0.00 0.00 0.00 0.00 0.00 0.00 0.00 0.00 0.00 0.00 0.00 0.00 0.00 0.00 0.00 0.00 0.00 0.00 0.00 0.00
0.00 0.00 0.00 0.00 0.00 0.00 0.00 0.00 0.00 0.00 0.00 0.00 0.00 0.00 0.00 0.00 0.00 0.00 0.00 0.00 0.00 0.00 0.00 0.00 0.00 0.00 0.00 0.00 0.00 0.00 0.00 0.00 0.00 0.00 0.00 0.00 0.00 0.00 0.00 0.00 0.00 0.00 0.00
MSLP
1010.17 1010.89 1011.50 1011.95 1012.33 1012.80 1012.96 1013.10 1013.41 1013.88 1014.94 1015.87 1016.18 1016.13 1015.76 1016.48 1016.33 1016.36 1016.41 1016.21 1016.12 1016.20 1016.20 1016.07 1015.97 1015.98 1015.99 1016.01 1016.16 1016.08 1016.12 1016.05 1015.79 1015.24 1015.36 1015.29 1015.38 1015.84 1015.89 1015.17 1015.16 1015.65 1016.60
1009.36 1009.99 1010.63 1011.38 1011.84 1012.13 1012.44 1012.69 1013.04 1013.36 1014.01 1014.70 1015.50 1015.77 1015.58 1015.80 1015.92 1015.82 1016.06 1016.02 1016.11 1016.13 1016.04 1016.00 1015.89 1016.03 1016.10 1016.04 1016.23 1016.27 1016.26 1015.90 1015.90 1015.70 1015.25 1015.34 1015.24 1014.95 1014.76 1014.84 1015.07 1015.11 1016.17
1008.78 1009.55 1010.04 1010.79 1011.37 1011.40 1011.53 1011.92 1012.34 1012.84 1013.40 1013.75 1014.36 1014.75 1014.96 1015.13 1015.17 1015.36 1015.61 1015.79 1015.69 1015.69 1015.26 1015.43 1015.54 1015.74 1015.99 1016.02 1016.12 1016.22 1016.13 1015.92 1015.77 1015.84 1015.78 1015.49 1015.26 1015.00 1014.89 1014.97 1015.22 1015.22 1015.56
1008.42 1008.92 1009.50 1010.08 1010.35 1010.58 1010.84 1011.03 1011.51 1011.99 1012.58 1013.30 1013.59 1013.88 1014.26 1014.41 1014.58 1014.75 1014.99 1015.20 1015.11 1015.02 1014.94 1014.96 1015.26 1015.48 1015.49 1015.76 1015.92 1015.97 1015.97 1016.11 1015.95 1015.81 1015.76 1015.50 1015.13 1014.69 1014.72 1014.85 1015.29 1015.48 1016.46
1007.81 1008.36 1008.79 1009.14 1009.39 1009.82 1010.04 1010.49 1010.96 1011.49 1011.88 1012.20 1012.72 1013.11 1013.50 1013.81 1013.91 1014.12 1014.40 1014.55 1014.54 1014.56 1014.42 1014.57 1014.89 1015.00 1015.07 1015.22 1015.49 1015.65 1015.56 1015.75 1015.69 1015.60 1015.45 1015.04 1014.80 1014.42 1014.42 1014.40 1014.88 1015.70 1015.38
1007.38 1007.84 1008.41 1008.75 1009.23 1009.68 1009.77 1010.12 1010.67 1011.12 1011.48 1011.88 1012.08 1012.40 1012.63 1012.91 1012.88 1012.94 1013.30 1013.64 1013.79 1014.05 1014.24 1014.42 1014.53 1014.63 1014.70 1014.95 1015.12 1014.89 1014.83 1015.00 1015.16 1015.16 1015.10 1014.91 1014.52 1014.38 1014.29 1014.43 1014.71 1015.58 1015.49
1006.98 1007.55 1008.12 1008.49 1009.03 1009.42 1009.66 1009.97 1010.24 1010.65 1011.01 1011.48 1011.66 1011.95 1012.16 1012.36 1012.41 1012.65 1012.89 1013.08 1013.05 1013.46 1013.75 1013.98 1014.19 1014.13 1014.16 1014.34 1014.20 1014.41 1014.30 1014.15 1014.15 1014.47 1014.56 1014.37 1014.22 1014.11 1014.16 1014.47 1014.73 1014.77 1014.81
1006.93 1007.40 1007.93 1008.32 1008.84 1009.22 1009.60 1009.94 1010.25 1010.50 1010.80 1011.00 1011.24 1011.42 1011.78 1011.92 1012.04 1012.44 1012.74 1012.93 1012.84 1012.88 1013.20 1013.57 1013.78 1013.80 1013.89 1014.01 1014.12 1014.14 1013.97 1013.87 1013.84 1013.97 1013.88 1013.75 1013.61 1013.56 1013.75 1013.92 1013.83 1014.05 1014.10
1006.92 1007.50 1007.96 1008.38 1008.82 1009.21 1009.46 1009.77 1010.06 1010.40 1010.68 1010.94 1011.18 1011.38 1011.72 1011.96 1012.61 1012.91 1013.04 1013.01 1012.81 1012.85 1013.07 1013.36 1013.56 1013.79 1014.00 1013.90 1014.00 1013.95 1013.73 1013.33 1012.92 1012.99 1013.24 1013.34 1013.24 1012.97 1012.97 1013.36 1013.44 1014.03 1014.08
1006.83 1007.52 1008.03 1008.40 1008.94 1009.31 1009.57 1009.84 1010.13 1010.46 1010.71 1011.01 1011.35 1011.78 1012.02 1012.54 1012.99 1013.22 1013.33 1013.31 1013.12 1013.06 1013.27 1013.49 1014.08 1014.25 1014.38 1014.27 1014.22 1014.20 1013.75 1013.29 1013.08 1012.88 1013.11 1013.11 1012.83 1012.62 1012.78 1012.81 1012.84 1013.24 1013.60
1006.60 1007.41 1008.03 1008.47 1008.86 1009.20 1009.58 1009.92 1010.26 1010.52 1010.85 1011.19 1011.52 1011.94 1012.30 1012.64 1013.33 1013.37 1013.47 1013.55 1013.55 1013.53 1013.65 1013.94 1014.44 1014.46 1014.51 1014.36 1014.28 1014.32 1014.29 1013.94 1013.45 1013.26 1012.79 1012.38 1012.08 1012.20 1012.23 1012.07 1011.92 1012.22 1012.66
1006.64 1007.46 1008.12 1008.37 1008.70 1009.12 1009.34 1009.69 1009.94 1010.26 1010.75 1011.17 1011.39 1011.60 1012.13 1012.79 1013.28 1013.53 1013.64 1013.73 1013.70 1013.70 1013.71 1013.97 1014.52 1014.45 1014.52 1014.29 1014.19 1014.12 1013.84 1013.44 1013.32 1013.00 1012.70 1012.37 1012.05 1011.59 1011.69 1011.84 1011.83 1012.09 1012.31
1006.63 1007.32 1007.93 1008.22 1008.69 1009.01 1009.29 1009.65 1010.05 1010.32 1010.74 1010.98 1011.28 1011.90 1012.42 1012.76 1013.22 1013.57 1013.72 1013.79 1013.88 1013.92 1014.07 1014.26 1014.43 1014.37 1014.36 1014.35 1014.32 1014.11 1013.90 1013.66 1013.37 1013.21 1013.27 1013.14 1013.15 1012.75 1012.76 1012.45 1012.07 1012.48 1012.60
1006.56 1007.16 1007.62 1008.06 1008.63 1009.13 1009.29 1009.69 1010.05 1010.51 1010.90 1011.30 1011.68 1012.12 1012.39 1012.74 1013.20 1013.60 1013.84 1014.10 1014.14 1014.03 1014.17 1014.17 1014.22 1014.23 1014.30 1014.36 1014.24 1014.16 1014.19 1014.20 1014.21 1014.01 1013.75 1013.63 1013.50 1013.21 1013.17 1013.41 1013.34 1013.47 1012.75
1006.64 1007.06 1007.44 1007.88 1008.39 1009.10 1009.92 1010.38 1010.60 1011.40 1011.44 1011.54 1012.04 1012.10 1012.56 1012.94 1013.38 1013.51 1013.66 1013.69 1013.61 1013.72 1013.70 1013.80 1014.14 1014.15 1014.02 1014.00 1014.36 1014.46 1014.28 1014.36 1014.63 1014.61 1014.35 1014.09 1014.09 1014.04 1013.96 1013.88 1013.75 1013.48 1013.40
1006.60 1006.98 1007.31 1007.77 1008.27 1008.71 1009.68 1010.83 1011.44 1011.62 1012.12 1012.10 1012.21 1012.23 1012.93 1013.05 1013.47 1013.63 1013.68 1013.77 1013.91 1013.96 1013.92 1013.81 1013.86 1013.89 1013.63 1013.71 1014.16 1014.52 1014.59 1014.62 1014.75 1014.89 1014.88 1014.79 1014.15 1014.51 1014.71 1014.70 1014.45 1014.07 1014.65
1006.60 1006.76 1006.89 1007.21 1007.74 1008.29 1008.92 1009.74 1010.88 1012.11 1012.26 1012.52 1012.61 1012.63 1012.74 1013.26 1013.64 1013.80 1013.92 1013.98 1014.02 1014.09 1013.92 1013.55 1013.56 1013.63 1013.59 1013.62 1013.87 1014.19 1014.47 1014.73 1014.94 1014.98 1015.04 1015.04 1015.16 1014.72 1014.49 1015.00 1014.89 1015.03 1015.15
1006.81 1006.63 1006.98 1006.91 1007.17 1007.87 1008.37 1008.56 1009.23 1010.42 1011.44 1012.40 1012.78 1012.99 1013.26 1013.42 1013.69 1013.95 1014.10 1014.15 1014.00 1013.96 1013.34 1012.92 1012.84 1012.89 1013.10 1013.31 1013.63 1013.96 1014.23 1014.67 1014.81 1014.90 1014.97 1014.83 1014.82 1014.68 1014.49 1014.35 1014.37 1014.95 1015.31
1007.55 1006.77 1006.94 1007.07 1006.75 1007.16 1007.66 1007.73 1008.03 1008.66 1009.68 1011.03 1012.28 1013.06 1013.47 1013.53 1013.65 1013.79 1013.89 1013.65 1012.95 1012.70 1012.66 1012.46 1012.44 1012.57 1012.81 1013.01 1013.26 1013.55 1013.98 1014.29 1014.56 1014.78 1014.84 1014.80 1014.82 1014.70 1014.58 1014.47 1014.31 1014.46 1015.01
1007.66 1007.05 1006.84 1006.43 1006.52 1006.90 1007.25 1007.26 1007.32 1008.05 1009.07 1009.87 1010.49 1011.30 1012.34 1013.00 1013.05 1013.04 1012.84 1012.54 1012.36 1012.16 1012.05 1012.03 1011.94 1011.99 1012.24 1012.60 1012.98 1013.36 1013.80 1014.00 1014.13 1014.34 1014.25 1014.28 1014.48 1014.44 1014.30 1014.17 1014.14 1014.22 1014.56
1006.94 1006.79 1006.44 1006.07 1006.19 1006.60 1006.74 1006.75 1006.65 1007.27 1007.86 1008.54 1009.14 1009.76 1010.70 1011.31 1011.47 1011.54 1011.48 1011.52 1011.52 1011.39 1011.57 1011.36 1011.42 1011.55 1011.88 1012.15 1012.44 1012.56 1012.95 1013.17 1013.48 1013.68 1013.77 1013.88 1013.78 1013.90 1013.65 1013.47 1013.67 1013.88 1014.13
1005.81 1005.61 1006.47 1005.53 1005.52 1006.19 1006.17 1006.21 1006.21 1006.43 1006.63 1007.55 1008.37 1009.62 1010.14 1010.38 1010.30 1010.46 1010.52 1010.60 1010.73 1010.70 1010.68 1010.81 1010.87 1010.88 1010.91 1011.12 1011.39 1011.47 1011.56 1011.77 1012.22 1012.61 1012.93 1012.97 1013.12 1013.16 1013.07 1013.04 1013.21 1013.34 1013.40
1004.24 1004.72 1005.33 1005.30 1005.23 1005.52 1005.76 1005.80 1005.81 1005.97 1006.18 1006.81 1007.99 1009.23 1009.88 1009.69 1009.46 1009.57 1009.91 1009.74 1009.75 1010.15 1010.10 1010.32 1010.43 1010.46 1010.36 1010.36 1010.57 1010.86 1011.02 1010.84 1011.07 1011.36 1011.68 1011.98 1012.19 1012.32 1012.33 1012.51 1012.61 1012.74 1012.74
1003.79 1004.24 1004.76 1005.08 1005.09 1005.44 1005.56 1005.69 1005.54 1005.68 1005.67 1006.11 1006.86 1007.64 1008.20 1008.52 1008.48 1008.28 1008.65 1008.86 1009.02 1009.33 1009.62 1009.87 1010.03 1009.96 1010.02 1010.04 1010.16 1010.32 1010.36 1010.43 1010.39 1010.64 1011.06 1011.49 1011.79 1011.95 1011.95 1011.93 1011.96 1012.00 1012.11
1003.33 1003.77 1004.10 1004.71 1005.09 1005.42 1005.48 1005.33 1005.35 1005.29 1005.62 1005.87 1006.14 1006.50 1006.94 1007.26 1007.48 1007.81 1008.32 1008.54 1008.74 1009.02 1009.18 1009.28 1009.25 1009.34 1009.48 1009.75 1009.75 1009.83 1010.26 1010.37 1010.39 1010.87 1010.75 1011.08 1011.29 1011.42 1011.47 1011.55 1011.59 1011.54 1011.53
1002.97 1003.50 1003.82 1004.30 1004.80 1005.07 1004.80 1005.07 1004.99 1004.96 1005.42 1005.75 1006.08 1006.05 1006.24 1006.52 1006.75 1007.06 1007.47 1007.91 1008.22 1008.45 1008.62 1008.66 1008.55 1008.54 1008.58 1008.96 1009.25 1009.62 1010.21 1010.30 1010.53 1010.68 1010.81 1010.90 1011.05 1011.12 1011.12 1011.17 1011.12 1011.15 1011.20
Thickness
5790 5786 5783 5781 5782 5782 5781 5782 5780 5778 5768 5763 5763 5765 5768 5767 5769 5767 5767 5772 5775 5777 5779 5780 5780 5783 5782 5783 5782 5783 5783 5781 5776 5786 5792 5795 5790 5779 5783 5791 5795 5791 5781
5794 5791 5786 5779 5783 5784 5783 5783 5782 5778 5776 5769 5766 5766 5770 5770 5766 5768 5767 5771 5772 5772 5775 5775 5777 5778 5775 5778 5776 5776 5776 5781 5778 5774 5785 5786 5788 5791 5789 5788 5787 5786 5782
5796 5792 5790 5785 5783 5786 5787 5787 5785 5780 5776 5778 5772 5769 5769 5768 5771 5769 5769 5768 5772 5773 5776 5774 5774 5774 5772 5772 5772 5771 5772 5776 5777 5774 5772 5781 5783 5787 5786 5785 5782 5781 5781
5797 5794 5789 5787 5787 5789 5791 5791 5788 5785 5780 5774 5774 5774 5771 5771 5771 5771 5769 5769 5772 5775 5776 5775 5772 5771 5771 5769 5768 5767 5769 5768 5770 5769 5769 5771 5776 5781 5781 5776 5771 5773 5767
5797 5794 5791 5791 5792 5791 5792 5790 5788 5785 5783 5783 5778 5775 5772 5772 5772 5771 5772 5771 5771 5770 5774 5773 5771 5771 5771 5769 5765 5764 5765 5762 5764 5763 5765 5768 5769 5772 5771 5774 5767 5762 5767
5795 5793 5791 5791 5787 5786 5787 5787 5785 5783 5781 5779 5780 5778 5776 5777 5779 5778 5776 5773 5771 5768 5766 5765 5766 5765 5765 5762 5762 5765 5766 5761 5759 5759 5760 5760 5764 5765 5768 5765 5761 5750 5749
5792 5791 5790 5788 5785 5784 5785 5784 5782 5781 5781 5777 5777 5776 5775 5775 5776 5772 5771 5771 5770 5767 5763 5761 5758 5761 5761 5761 5761 5758 5759 5761 5762 5758 5755 5757 5757 5760 5761 5756 5753 5751 5749
5788 5787 5787 5786 5783 5783 5781 5779 5778 5778 5776 5775 5774 5774 5771 5772 5771 5768 5766 5765 5766 5765 5762 5758 5755 5754 5754 5752 5752 5750 5751 5753 5753 5752 5755 5756 5756 5757 5755 5753 5753 5751 5752
5783 5782 5782 5782 5779 5778 5777 5776 5775 5773 5772 5771 5770 5769 5767 5766 5762 5760 5759 5760 5761 5759 5757 5753 5752 5749 5745 5741 5740 5738 5740 5745 5748 5749 5749 5749 5750 5751 5751 5747 5743 5736 5735
5782 5779 5778 5777 5773 5772 5772 5771 5771 5770 5768 5767 5764 5763 5760 5759 5754 5752 5751 5752 5752 5752 5748 5745 5737 5737 5734 5733 5731 5730 5733 5736 5736 5737 5738 5739 5742 5744 5743 5741 5741 5731 5728
5785 5779 5774 5773 5770 5769 5768 5768 5766 5764 5763 5761 5759 5758 5756 5756 5748 5748 5746 5745 5743 5740 5738 5734 5730 5727 5726 5726 5724 5722 5721 5723 5726 5726 5730 5734 5736 5735 5735 5736 5736 5733 5727
5781 5775 5770 5770 5768 5766 5766 5765 5765 5763 5760 5757 5757 5756 5753 5750 5744 5740 5738 5735 5735 5733 5731 5728 5721 5720 5718 5718 5717 5715 5716 5718 5719 5718 5720 5723 5725 5729 5728 5726 5724 5720 5719
5776 5771 5768 5768 5765 5764 5763 5762 5760 5760 5756 5754 5752 5747 5744 5743 5739 5734 5731 5729 5726 5725 5722 5716 5713 5712 5710 5708 5705 5705 5705 5705 5705 5705 5703 5703 5703 5706 5707 5708 5710 5705 5704
5770 5767 5765 5762 5759 5757 5759 5758 5757 5754 5752 5748 5745 5740 5739 5736 5732 5729 5725 5721 5716 5716 5712 5711 5707 5704 5700 5697 5695 5694 5691 5688 5686 5686 5687 5688 5689 5692 5691 5690 5686 5681 5688
5764 5761 5759 5757 5755 5751 5747 5748 5748 5740 5743 5742 5738 5737 5732 5728 5723 5720 5717 5716 5715 5711 5709 5706 5699 5695 5694 5691 5686 5683 5682 5679 5674 5672 5672 5671 5672 5673 5674 5673 5672 5675 5662
5754 5754 5753 5750 5749 5748 5742 5736 5728 5728 5725 5725 5724 5727 5721 5717 5711 5709 5708 5705 5703 5700 5700 5696 5692 5689 5690 5687 5679 5675 5672 5670 5667 5664 5660 5658 5662 5657 5656 5656 5655 5656 5645
5749 5750 5751 5749 5747 5744 5742 5736 5729 5718 5713 5712 5712 5713 5712 5708 5703 5700 5699 5697 5695 5691 5691 5691 5688 5685 5683 5682 5678 5673 5669 5666 5662 5660 5657 5652 5646 5647 5647 5642 5643 5640 5639
5745 5746 5744 5745 5744 5739 5737 5737 5734 5723 5716 5710 5703 5704 5699 5697 5695 5692 5690 5688 5690 5686 5692 5692 5689 5687 5683 5679 5676 5671 5668 5663 5660 5657 5655 5653 5650 5648 5646 5645 5643 5635 5630
5718 5740 5740 5738 5743 5739 5736 5736 5735 5730 5722 5712 5701 5694 5689 5688 5688 5686 5684 5689 5694 5693 5692 5691 5688 5684 5681 5679 5677 5674 5668 5664 5660 5656 5653 5651 5648 5647 5646 5646 5647 5643 5633
5702 5726 5732 5738 5735 5733 5730 5729 5730 5725 5717 5712 5708 5702 5694 5689 5691 5691 5690 5692 5692 5692 5692 5691 5689 5687 5683 5679 5674 5670 5666 5663 5660 5656 5655 5652 5649 5647 5646 5646 5645 5644 5638
5714 5723 5727 5733 5731 5727 5726 5726 5729 5724 5719 5716 5713 5709 5702 5699 5699 5699 5698 5696 5695 5695 5691 5692 5690 5687 5683 5680 5676 5674 5669 5665 5661 5658 5655 5653 5652 5648 5649 5649 5646 5644 5640
5720 5722 5717 5728 5730 5722 5724 5726 5727 5725 5725 5718 5714 5705 5699 5701 5704 5702 5701 5699 5698 5698 5698 5694 5692 5690 5688 5685 5681 5679 5677 5673 5669 5664 5659 5657 5654 5651 5649 5648 5645 5643 5642
5732 5729 5721 5723 5725 5722 5721 5723 5724 5723 5721 5718 5711 5703 5699 5702 5704 5703 5699 5702 5702 5697 5698 5694 5691 5689 5690 5688 5685 5681 5676 5676 5673 5669 5664 5659 5655 5652 5650 5646 5643 5641 5640
5727 5724 5720 5718 5718 5716 5715 5714 5718 5716 5719 5718 5715 5710 5707 5705 5705 5708 5706 5705 5703 5699 5695 5691 5688 5688 5687 5684 5681 5679 5678 5676 5674 5670 5664 5658 5652 5648 5647 5646 5644 5643 5641
5723 5721 5721 5714 5710 5709 5709 5711 5712 5714 5713 5714 5714 5714 5712 5709 5707 5705 5701 5700 5698 5695 5693 5690 5688 5686 5683 5679 5678 5677 5672 5668 5666 5662 5660 5656 5652 5648 5645 5642 5640 5639 5638
5718 5716 5715 5712 5707 5706 5709 5707 5709 5711 5708 5709 5709 5711 5709 5707 5707 5705 5702 5698 5695 5693 5690 5688 5685 5686 5685 5681 5675 5670 5664 5660 5655 5653 5651 5649 5645 5642 5640 5637 5635 5633 5631